Regional Weather Roundup
Issued by NWS Green Bay, WI

Home | Current Version | Previous Version | Graphics & Text | Print | Product List | Glossary Off
Versions: 1 2 3 4 5 6 7 8 9 10 11 12 13 14 15 16 17 18 19 20 21 22 23 24 25 26 27 28 29 30 31 32 33 34 35 36 37 38 39 40 41 42 43 44 45 46 47 48 49 50

000
ASUS43 KGRB 010659
RWRGRB

NORTH-CENTRAL AND NORTHEAST WISCONSIN REGIONAL WEATHER ROUNDUP
NATIONAL WEATHER SERVICE GREEN BAY WI
100 AM CST SUN FEB 01 2015

WIZ005-009-010>012-018-019-010800-
NORTH CENTRAL WISCONSIN

CITY           SKY/WX    TMP DP  RH WIND       PRES   REMARKS
IRONWOOD       CLOUDY     7   1  78 E12       30.30S WCI  -9
MANITOWISH WTR NOT AVBL
ARBOR VITAE    NOT AVBL
EAGLE RIVER    NOT AVBL
LAND O LAKES   NOT AVBL
RHINELANDER    CLOUDY     7  -1  70 NE9       30.26R WCI  -7
PHILLIPS       NOT AVBL
ANTIGO         NOT AVBL
TOMAHAWK       NOT AVBL
MERRILL        NOT AVBL
$$

WIZ013-073-010800-
NORTHEAST WISCONSIN

CITY           SKY/WX    TMP DP  RH WIND       PRES   REMARKS
IRON MOUNTAIN  CLOUDY     7  -1  70 NW6       30.30R WCI  -3
MARINETTE      CLOUDY    12   1  62 N9        30.32S WCI   0
$$

WIZ017-030-035>037-045-010800-
CENTRAL WISCONSIN

CITY           SKY/WX    TMP DP  RH WIND       PRES   REMARKS
MEDFORD        NOT AVBL
WAUSAU         CLOUDY    15   6  67 NE7       30.22S WCI   5
MOSINEE        NOT AVBL
MARSHFIELD     CLOUDY    18  10  71 NE17      30.17F WCI   3
WISC RAPIDS    LGT SNOW  20  14  77 E14       30.20F WCI   7
STEVENS POINT  NOT AVBL
WAUPACA        NOT AVBL
SHAWANO        NOT AVBL
CLINTONVILLE   NOT AVBL
$$

WIZ038-039-048-051-010800-
FOX VALLEY

CITY           SKY/WX    TMP DP  RH WIND       PRES   REMARKS
NWS GREEN BAY  CLOUDY    15   6  67 NE15      30.30S WCI   0
APPLETON       NOT AVBL
OSHKOSH        LGT SNOW  17  12  80 NE17G25   30.23F WCI   1
FOND DU LAC    LGT SNOW  20  14  77 NE16G28   30.22F WCI   6
$$

WIZ022-050-052-010800-
EAST CENTRAL WISCONSIN

CITY           SKY/WX    TMP DP  RH WIND       PRES   REMARKS
STURGEON BAY   CLOUDY    12   5  73 N16       30.31F WCI  -4
MANITOWOC      NOT AVBL
SHEBOYGAN      CLOUDY    23  17  78 NE18      30.21F WCI   9
$$

LMZ563-521-522-541>543-010800-
LAKESHORE

STATION/POSITION TIME  TEMP    WIND        PRES    VSBY  WAVE
                       AIR SEA DIR/SP/G                  HT/PER
                 (UTC) (F)     (DEG/KT/KT) (MB)    (MI)  (FT/S)
SHEBOYGAN LKSHOR 0600   26      40/ 23/ 24 1025.0R
KEWAUNEE LKSHORE 0600   16     360/  8/ 15 1024.7R
NORTHPORT PIER   0600   15     360/ 16/ 21 1026.4R
SISTER BAY LKSHO 0600   14     360/ 14/ 18   N/A
CHAMBERS ISLAND  0600   13     330/ 14/ 16 1026.8R
MENOMINEE LKSHOR 0600   13     340/ 12     1027.5R
$$



USA.gov is the U.S. government's official web portal to all federal, state and local government web resources and services.